Weather in Alekseyevo

Russia / Republic of Karelia     62°02′41″N   36°02′42″E
temp.,
°C
wind,
m/s
gust,
m/s
humid.,
%
clouds,
%
prec.,
mm/h
press.,
hPa
HPBL,
m
3 march, wed
wed300:00−7nw3118818 0.0 1010319
03:00−8wnw38959 0.0 1010183
06:00−6w399753 0.0 1008260
09:00−2wnw5109376 0.6 1006665
12:00−2w4892100 0.1 1004616
15:00−1w4897100 0.4 1002581
18:00−2w4996100 1.8 997588
21:00−2wsw2598100 3.3 995271
4 march, thu
thu400:00−3n2298100 3.3 993115
03:00−3n41093100 4.3 995598
06:00−9n399387 0.1 997280
09:00−11nnw389563 0.1 999253
12:00−7nw359469 0.0 999321
15:00−6nw359381 0.1 1000419
18:00−8nw2296100 0.1 100045
21:00−12nw239785 0.1 100029
5 march, fri
fri500:00−12nw229781 0.0 100147
03:00−11nw239790 0.3 1002112
06:00−11n389399 0.3 1004338
09:00−16n379460 0.3 1006248
12:00−12nnw35900 0.0 1008419
15:00−11nw369039 0.0 1010529
18:00−12nw229699 0.1 101131
21:00−15nnw239679 0.1 101235
6 march, sat
sat600:00−18nnw129848 0.0 101320
03:00−19nw1110029 0.0 101420
06:00−19sw1210050 0.0 101320
09:00−15sw239873 0.1 1012118
12:00−11sw3496100 0.1 1010303
15:00−10s369498 0.1 1008310
18:00−10s4109589 0.1 1004357
21:00−9sse5139495 0.1 999626
7 march, sun
sun700:00−7sse71394100 1.4 992872
03:00−7se71494100 3.3 986894
06:00−6se71395100 2.8 983818
09:00−8w2693100 4.3 984396
12:00−8wnw2394100 0.2 987348
15:00−8ne51089100 0.4 990686
18:00−10ne51188100 0.1 994729
21:00−11nne41288100 0.1 997903